Location: Gniazdowice
(50.2124°N, 20.2673°E)
Time: 13:30:53
(UTC+00:00)

Meteor 1-28 Rocket - Pass Details

Date: 11 August 2024
Orbit: 467 x 482 km, 97.5° (Epoch: 15 September)

Event Time Altitude Azimuth Distance (km) Brightness Sun altitude
Exits shadow 02:18:40 14° 233° (SW) 1,471 4.8 -9.5°
Maximum altitude 02:20:26 18° 268° (W) 1,251 4.7 -9.3°
Drops below altitude 10° 02:23:01 10° 313° (NW) 1,682 5.7 -9.0°
Sets 02:25:35 0° 333° (NNW) 2,565 6.9 -8.6°
